Terminal Aerodrome Forecast
Issued by NWS Wilmington, OH

Current Version | Previous Version | Graphics & Text | Print | Product List | Glossary On
Versions: 1 2 3 4 5 6 7 8 9 10 11 12 13 14 15 16 17 18 19 20 21
849
FTUS41 KILN 211134
TAFILN
TAF
KILN 211134Z 2112/2212 17004KT P6SM SKC
     FM211500 20009KT P6SM FEW040
     FM220000 19004KT P6SM SCT250=

USA.gov is the U.S. government's official web portal to all federal, state and local government web resources and services.